This demonstration page uses our WeatherBlox Daily Observations layout. Learn more.

Left ArrowRight Arrow

Hourly Observations for January 28, 2018

Temp ( °F °C ) Dew Point ( °F °C ) Humidity (%) Winds ( mph kmh ) Pressure ( in mb ) Visibility ( mi km ) Precip ( " mm )
12:56 am 00:56 Partly Cloudy 30 -1.1 24 -4.4 79 79 NNW 10 17 30.34 1028 10 16 0.00 0.00
1:56 am 01:56 Partly Cloudy 27 -2.8 24 -4.4 89 89 NNE 12 19 30.37 1028 10 16 0.00 0.00
2:56 am 02:56 Clear 23 -5 20 -6.7 88 88 N 9 15 30.38 1029 10 16 0.00 0.00
3:56 am 03:56 Clear 22 -5.6 19 -7.2 89 89 NNE 10 17 30.38 1029 10 16 0.00 0.00
4:56 am 04:56 Mostly Cloudy 20 -6.7 17 -8.3 89 89 N 9 15 30.40 1029 10 16 0.00 0.00
5:56 am 05:56 Cloudy 22 -5.6 19 -7.2 89 89 NE 13 20 30.41 1030 10 16 0.00 0.00
6:56 am 06:56 Cloudy 21 -6.1 18 -7.8 88 88 NNE 12 19 30.43 1031 10 16 0.00 0.00
7:56 am 07:56 Cloudy 19 -7.2 16 -8.9 88 88 ENE 14 22 30.43 1031 10 16 0.00 0.00
8:05 am 08:05 Cloudy 19 -7 16 -9 86 86 NE 14 22 30.50 1033 10 16 0.00 0.00
8:18 am 08:18 Cloudy 19 -7 16 -9 86 86 ENE 15 24 30.50 1033 10 16 0.00 0.00
8:35 am 08:35 Cloudy 18 -8 16 -9 93 93 ENE 13 20 30.50 1033 10 16 0.00 0.00
8:56 am 08:56 Cloudy 18 -7.8 14 -10 84 84 NE 13 20 30.45 1031 10 16 0.00 0.00
9:56 am 09:56 Partly Cloudy 18 -7.8 14 -10 84 84 ENE 14 22 30.47 1032 10 16 0.00 0.00
10:56 am 10:56 Partly Cloudy 21 -6.1 13 -10.6 71 71 NNE 12 19 30.50 1033 10 16 0.00 0.00
11:56 am 11:56 Partly Cloudy 21 -6.1 14 -10 74 74 NE 12 19 30.50 1033 10 16 0.00 0.00
12:56 pm 12:56 Sunny 23 -5 14 -10 68 68 NE 13 20 30.50 1033 10 16 0.00 0.00
1:56 pm 13:56 Cloudy 24 -4.4 14 -10 65 65 NNE 12 19 30.51 1033 10 16 0.00 0.00
2:44 pm 14:44 Cloudy 23 -5 14 -10 68 68 N 12 19 30.56 1035 10 16 0.00 0.00
2:56 pm 14:56 Cloudy 24 -4.4 15 -9.4 68 68 NNE 14 22 30.50 1033 10 16 0.00 0.00
3:56 pm 15:56 Mostly Sunny 24 -4.4 14 -10 65 65 N 13 20 30.53 1034 10 16 0.00 0.00
4:56 pm 16:56 Mostly Sunny 22 -5.6 15 -9.4 75 75 N 14 22 30.57 1035 10 16 0.00 0.00
5:18 pm 17:18 Mostly Cloudy 21 -6 16 -9 80 80 N 13 20 30.65 1038 10 16 0.00 0.00
5:56 pm 17:56 Partly Cloudy 20 -6.7 14 -10 78 78 N 10 17 30.60 1036 10 16 0.00 0.00
6:56 pm 18:56 Cloudy 21 -6.1 15 -9.4 78 78 NNE 10 17 30.63 1037 10 16 0.00 0.00
8:56 pm 20:56 Clear 17 -8.3 13 -10.6 84 84 N 7 11 30.68 1039 10 16 0.00 0.00
9:56 pm 21:56 Clear 16 -8.9 12 -11.1 84 84 NNE 9 15 30.68 1039 10 16 0.00 0.00
10:56 pm 22:56 Clear 14 -10 11 -11.7 88 88 N 9 15 30.69 1039 10 16 0.00 0.00
11:56 pm 23:56 Clear 15 -9.4 10 -12.2 80 80 N 7 11 30.70 1040 10 16 0.00 0.00

Powered by AerisWeather